Terminal Aerodrome Forecast
Issued by NWS

Home | Current Version | Previous Version | Text Only | Print | Product List | Glossary On
Versions: 1 2 3 4 5 6 7 8 9 10 11 12 13 14 15 16 17
000
FTUS44 KMAF 241100
TAFINK
TAF
KINK 241123Z 2412/2512 09010KT P6SM SCT150 SCT250
     FM250300 13008KT P6SM FEW100=

USA.gov is the U.S. government's official web portal to all federal, state and local government web resources and services.